When you browse on this site, cookies collect data to enhance your experience and personalize the content and advertising you see.
Visit our Privacy Policy to learn more. By continuing to use the site, you agree to this use of cookies and data.
  • In United Kingdom
  • List of Countries
  • For 7 days
  • Water Temperature
  • Weather Map
  • Weather Widgets
  • user-avatar
    Login

    Hourly Weather Aberchirder

    Today, 18 August, Sunday

    Time Temperature Precipitation Wind Pressure Humidity
    00:00 +10°C° 0 mm 7 mps 733 mmHg 82%
    01:00 +10°C° 0 mm 7 mps 732 mmHg 82%
    02:00 +10°C° 0 mm 7 mps 732 mmHg 83%
    03:00 +10°C° 0 mm 7 mps 732 mmHg 83%
    04:00 +10°C° 0.1 mm 7 mps 732 mmHg 84%
    05:00 +10°C° 0.1 mm 7 mps 731 mmHg 86%
    06:00 +11°C° 0 mm 6 mps 731 mmHg 88%
    07:00 +11°C° 0 mm 7 mps 731 mmHg 85%
    08:00 +12°C° 0 mm 7 mps 731 mmHg 82%
    09:00 +14°C° 0 mm 7 mps 731 mmHg 79%
    10:00 +15°C° 0 mm 7 mps 731 mmHg 74%
    11:00 +16°C° 0 mm 7 mps 731 mmHg 69%
    12:00 +16°C° 0 mm 7 mps 731 mmHg 64%
    13:00 +17°C° 0.3 mm 7 mps 731 mmHg 66%
    14:00 +17°C° 0.3 mm 7 mps 731 mmHg 68%
    15:00 +17°C° 0.3 mm 7 mps 731 mmHg 70%
    16:00 +16°C° 0.4 mm 7 mps 731 mmHg 72%
    17:00 +15°C° 0.4 mm 7 mps 732 mmHg 75%
    18:00 +14°C° 0.4 mm 7 mps 732 mmHg 78%
    19:00 +12°C° 0.2 mm 7 mps 733 mmHg 81%
    20:00 +11°C° 0.2 mm 7 mps 733 mmHg 85%
    21:00 +10°C° 0.2 mm 7 mps 734 mmHg 88%
    22:00 +10°C° 0.1 mm 7 mps 734 mmHg 88%
    23:00 +10°C° 0.1 mm 7 mps 735 mmHg 88%

    Tomorrow, 19 August, Monday

    Time Temperature Precipitation Wind Pressure Humidity
    00:00 +9°C° 0.1 mm 7 mps 735 mmHg 88%
    01:00 +10°C° 0.1 mm 6 mps 736 mmHg 88%
    02:00 +10°C° 0.1 mm 6 mps 736 mmHg 87%
    03:00 +10°C° 0.1 mm 6 mps 736 mmHg 87%
    04:00 +10°C° 0 mm 5 mps 737 mmHg 87%
    05:00 +10°C° 0 mm 5 mps 737 mmHg 88%
    06:00 +10°C° 0 mm 5 mps 738 mmHg 89%
    07:00 +12°C° 0 mm 5 mps 738 mmHg 85%
    08:00 +13°C° 0 mm 6 mps 738 mmHg 81%
    09:00 +15°C° 0 mm 6 mps 739 mmHg 77%
    10:00 +15°C° 0.2 mm 6 mps 739 mmHg 73%
    11:00 +16°C° 0.2 mm 6 mps 740 mmHg 70%
    12:00 +17°C° 0.2 mm 6 mps 740 mmHg 66%
    13:00 +16°C° 0.5 mm 6 mps 740 mmHg 68%
    14:00 +16°C° 0.5 mm 6 mps 741 mmHg 69%
    15:00 +16°C° 0.5 mm 6 mps 741 mmHg 71%
    16:00 +15°C° 0.2 mm 6 mps 742 mmHg 73%
    17:00 +15°C° 0.2 mm 5 mps 742 mmHg 75%
    18:00 +14°C° 0.2 mm 5 mps 743 mmHg 78%
    19:00 +13°C° 0.4 mm 5 mps 743 mmHg 83%
    20:00 +11°C° 0.4 mm 6 mps 744 mmHg 87%
    21:00 +10°C° 0.4 mm 6 mps 745 mmHg 92%
    22:00 +10°C° 0.4 mm 6 mps 745 mmHg 92%
    23:00 +9°C° 0.4 mm 5 mps 746 mmHg 91%

    Day after tomorrow, 20 August, Tuesday

    Time Temperature Precipitation Wind Pressure Humidity
    00:00 +9°C° 0.4 mm 5 mps 746 mmHg 91%
    01:00 +10°C° 0 mm 4 mps 747 mmHg 91%
    02:00 +8°C° 0 mm 4 mps 747 mmHg 91%
    03:00 +9°C° 0 mm 3 mps 748 mmHg 91%
    04:00 +8°C° 0 mm 4 mps 748 mmHg 90%
    05:00 +8°C° 0 mm 4 mps 749 mmHg 89%
    06:00 +8°C° 0 mm 4 mps 749 mmHg 88%
    07:00 +10°C° 0 mm 4 mps 750 mmHg 83%
    08:00 +10°C° 0 mm 4 mps 750 mmHg 78%
    09:00 +11°C° 0 mm 4 mps 751 mmHg 73%
    10:00 +12°C° 0 mm 4 mps 751 mmHg 69%
    11:00 +13°C° 0 mm 3 mps 752 mmHg 65%
    12:00 +14°C° 0 mm 2 mps 752 mmHg 61%
    13:00 +15°C° 0 mm 2 mps 752 mmHg 62%
    14:00 +15°C° 0 mm 2 mps 752 mmHg 64%
    15:00 +15°C° 0 mm 2 mps 752 mmHg 65%
    16:00 +13°C° 0 mm 3 mps 753 mmHg 70%
    17:00 +13°C° 0 mm 3 mps 753 mmHg 75%
    18:00 +13°C° 0 mm 4 mps 753 mmHg 79%
    19:00 +11°C° 0 mm 4 mps 753 mmHg 84%
    20:00 +10°C° 0 mm 4 mps 753 mmHg 89%
    21:00 +8°C° 0 mm 4 mps 753 mmHg 93%
    22:00 +8°C° 0 mm 4 mps 753 mmHg 93%
    23:00 +10°C° 0 mm 4 mps 753 mmHg 92%

    21 August, Wednesday

    Time Temperature Precipitation Wind Pressure Humidity
    00:00 +10°C° 0 mm 4 mps 753 mmHg 92%
    01:00 +10°C° 0.1 mm 4 mps 753 mmHg 91%
    02:00 +10°C° 0.1 mm 3 mps 753 mmHg 91%
    03:00 +11°C° 0.1 mm 3 mps 753 mmHg 91%
    04:00 +11°C° 0 mm 3 mps 752 mmHg 91%
    05:00 +10°C° 0 mm 3 mps 752 mmHg 91%
    06:00 +10°C° 0 mm 2 mps 752 mmHg 91%
    07:00 +12°C° 0 mm 3 mps 752 mmHg 85%
    08:00 +14°C° 0 mm 3 mps 752 mmHg 80%
    09:00 +16°C° 0 mm 3 mps 752 mmHg 74%
    10:00 +17°C° 0 mm 4 mps 752 mmHg 71%
    11:00 +18°C° 0 mm 4 mps 752 mmHg 69%
    12:00 +17°C° 0 mm 5 mps 751 mmHg 66%
    13:00 +17°C° 0.1 mm 5 mps 751 mmHg 66%
    14:00 +17°C° 0.1 mm 5 mps 751 mmHg 66%
    15:00 +17°C° 0.1 mm 6 mps 751 mmHg 67%
    16:00 +16°C° 0.4 mm 5 mps 751 mmHg 73%
    17:00 +15°C° 0.4 mm 4 mps 750 mmHg 80%
    18:00 +14°C° 0.4 mm 4 mps 750 mmHg 87%
    19:00 +13°C° 0.2 mm 4 mps 750 mmHg 88%
    20:00 +13°C° 0.2 mm 4 mps 750 mmHg 89%
    21:00 +12°C° 0.2 mm 4 mps 750 mmHg 91%
    22:00 +11°C° 0.1 mm 4 mps 750 mmHg 91%
    23:00 +11°C° 0.1 mm 3 mps 750 mmHg 92%

    22 August, Thursday

    Time Temperature Precipitation Wind Pressure Humidity
    00:00 +10°C° 0.1 mm 3 mps 750 mmHg 93%
    01:00 +10°C° 0 mm 3 mps 750 mmHg 93%
    02:00 +9°C° 0 mm 3 mps 750 mmHg 92%
    03:00 +9°C° 0 mm 3 mps 750 mmHg 92%
    04:00 +9°C° 0 mm 3 mps 750 mmHg 90%
    05:00 +9°C° 0 mm 3 mps 751 mmHg 89%
    06:00 +9°C° 0 mm 3 mps 751 mmHg 88%
    07:00 +11°C° 0 mm 3 mps 751 mmHg 82%
    08:00 +12°C° 0 mm 3 mps 751 mmHg 76%
    09:00 +14°C° 0 mm 3 mps 752 mmHg 71%
    10:00 +16°C° 0 mm 3 mps 751 mmHg 67%
    11:00 +16°C° 0 mm 3 mps 751 mmHg 64%
    12:00 +17°C° 0 mm 3 mps 751 mmHg 61%
    13:00 +17°C° 0 mm 3 mps 751 mmHg 64%
    14:00 +17°C° 0 mm 4 mps 751 mmHg 66%
    15:00 +15°C° 0 mm 5 mps 751 mmHg 69%
    16:00 +14°C° 0.3 mm 6 mps 750 mmHg 73%
    17:00 +14°C° 0.3 mm 6 mps 750 mmHg 78%
    18:00 +13°C° 0.3 mm 6 mps 749 mmHg 82%
    19:00 +12°C° 0 mm 7 mps 749 mmHg 81%
    20:00 +12°C° 0 mm 7 mps 749 mmHg 81%
    21:00 +12°C° 0 mm 8 mps 748 mmHg 80%
    22:00 +13°C° 0 mm 8 mps 748 mmHg 80%
    23:00 +14°C° 0 mm 7 mps 748 mmHg 81%

    23 August, Friday

    Time Temperature Precipitation Wind Pressure Humidity
    00:00 +15°C° 0 mm 7 mps 748 mmHg 81%
    01:00 +15°C° 0 mm 7 mps 748 mmHg 82%
    02:00 +15°C° 0 mm 7 mps 747 mmHg 82%
    03:00 +15°C° 0 mm 7 mps 747 mmHg 82%
    04:00 +15°C° 0 mm 7 mps 747 mmHg 81%
    05:00 +15°C° 0 mm 7 mps 747 mmHg 79%
    06:00 +16°C° 0 mm 7 mps 747 mmHg 78%
    07:00 +16°C° 0 mm 7 mps 747 mmHg 78%
    08:00 +16°C° 0 mm 7 mps 748 mmHg 78%
    09:00 +16°C° 0 mm 7 mps 748 mmHg 78%
    10:00 +17°C° 0 mm 7 mps 748 mmHg 75%
    11:00 +17°C° 0 mm 8 mps 748 mmHg 72%
    12:00 +18°C° 0 mm 8 mps 749 mmHg 70%
    13:00 +18°C° 0 mm 8 mps 749 mmHg 71%
    14:00 +18°C° 0 mm 7 mps 749 mmHg 73%
    15:00 +17°C° 0 mm 7 mps 749 mmHg 74%
    16:00 +17°C° 0 mm 7 mps 749 mmHg 76%
    17:00 +16°C° 0 mm 6 mps 749 mmHg 78%
    18:00 +16°C° 0 mm 5 mps 749 mmHg 80%
    19:00 +16°C° 0 mm 5 mps 749 mmHg 82%
    20:00 +15°C° 0 mm 5 mps 749 mmHg 84%
    21:00 +15°C° 0 mm 5 mps 750 mmHg 86%
    22:00 +15°C° 0 mm 5 mps 750 mmHg 86%
    23:00 +15°C° 0 mm 4 mps 750 mmHg 87%
    Show more